Regional Weather Roundup
Issued by NWS State College, PA

Home | Current Version | Previous Version | Text Only | Print | Product List | Glossary On
Versions: 1 2 3 4 5 6 7 8 9 10 11 12 13 14 15 16 17 18 19 20 21 22 23 24 25 26 27 28 29 30 31 32 33 34 35 36 37 38 39 40 41 42 43 44 45 46 47 48 49 50
336
ASUS41 KCTP 240810
RWRCTP
REGIONAL WEATHER ROUNDUP
NATIONAL WEATHER SERVICE STATE COLLEGE PA
400 AM EDT SUN SEP 24 2017

Note: "fair" indicates few or no clouds below 12,000 feet with no
significant weather and/or obstructions to visibility.

* = STATION THAT DOES NOT REPORT PRECIPITATION /E.G. RAIN...SNOW...ETC/
    THUNDER OR FOG.

PAZ002>004-007>009-013>016-020>023-029>032-240900-
WESTERN PENNSYLVANIA

CITY           SKY/WX    TMP DP  RH WIND       PRES   REMARKS
ERIE           CLEAR     64  61  90 CALM      30.15R
MEADVILLE      CLEAR     65  64  97 CALM      30.18R
FRANKLIN*      PTCLDY    61  61 100 CALM      30.19R FOG
NEW CASTLE     FAIR      59  59 100 CALM      30.16S FOG
BEAVER COUNTY  NOT AVBL
BUTLER*        CLEAR     59  59 100 NE3       30.16  FOG
PITTSBURGH INT CLEAR     65  59  81 CALM      30.14S
PITTSBURGH     CLEAR     65  58  78 N3        30.14S
INDIANA*       CLEAR     59  57  94 E3        30.18S
LATROBE        CLEAR     57  57 100 CALM      30.16R
WASHINGTON CO* CLEAR     55  54  94 CALM      30.15S
$$

PAZ004>006-010>012-017>019-024>028-033>037-041-042-045-046-049>053-240900-
CENTRAL PENNSYLVANIA

CITY           SKY/WX    TMP DP  RH WIND       PRES   REMARKS
BRADFORD       CLEAR     57  56  96 CALM      30.21R
DUBOIS         CLEAR     64  59  83 NE5       30.18R
CLEARFIELD     CLEAR     59  59 100 CALM      30.18R
JOHNSTOWN      CLEAR     66  54  65 CALM      30.19S
ALTOONA        CLEAR     59  57  93 CALM      30.17R
STATE COLLEGE  PTCLDY    61  59  94 CALM      30.15S
WILLIAMSPORT   CLEAR     64  62  93 CALM      30.12R
SELINSGROVE    CLEAR     58  58 100 NW3       30.12S
FT INDIANTOWN  CLEAR     61  61 100 CALM      30.09R
CAPITAL CITY   CLEAR     64  58  80 W5        30.09S
HARRISBURG     CLEAR     67  63  87 NW7       30.08R
YORK           CLEAR     57  57 100 CALM      30.09S
$$

PAZ038>040-043-044-047-048-054-055-060>062-067>071-240900-
EASTERN PENNSYLVANIA

CITY           SKY/WX    TMP DP  RH WIND       PRES   REMARKS
SCRANTON       CLEAR     63  60  90 E5        30.13S
MOUNT POCONO   CLEAR     66  60  81 N7        30.15R
ALLENTOWN      CLEAR     63  59  87 CALM      30.08S
QUAKERTOWN*    SUNNY     61  59  94 CALM      30.09S
READING        CLEAR     63  63 100 CALM      30.08R
LANCASTER      CLEAR     64  62  93 CALM      30.08S
COATESVILLE    SUNNY     72  61  68 N5        30.09S
POTTSTOWN      CLEAR     63  62  97 CALM      30.09S
BLUE BELL      CLEAR     57  57 100 CALM      30.08S
DOYLESTOWN     CLEAR     67  60  78 NE3       30.06S
WILLOW GROVE   NOT AVBL
NORTH PHILA    CLEAR     70  60  70 CALM      30.06S
PHILADELPHIA   CLEAR     70  60  70 CALM      30.04S
$$




USA.gov is the U.S. government's official web portal to all federal, state and local government web resources and services.